Shelbyville, IN

4:11 PM EDT on April 20, 2018 (GMT -0400)
Shelbyville Municipal

Weather History for KGEZ - January, 2013

Change the Weather History Date:

Monday, January 21, 2013

  Actual Average Record
Temperature  
Mean Temperature 19 °F 29 °F  
Max Temperature 25 °F 36 °F 63 °F (2017)
Min Temperature 12 °F 21 °F -12 °F (2011)
Degree Days  
Heating Degree Days 46 36  
Month to date heating degree days 688 756  
Since 1 July heating degree days 2560 2860  
Cooling Degree Days 0 0  
Month to date cooling degree days 0 0  
Year to date cooling degree days 0 0  
Moisture  
Dew Point 7 °F    
Average Humidity 55    
Maximum Humidity 68    
Minimum Humidity 41    
Precipitation  
Precipitation T in 0.05 in 1.25 in (1999)
Month to date precipitation 2.80 1.82  
Year to date precipitation 2.80 1.82  
Sea Level Pressure  
Sea Level Pressure 30.17 in    
Wind  
Wind Speed 14 mph (West)    
Max Wind Speed 25 mph    
Max Gust Speed 35 mph    
Visibility 8 miles    
Events Snow    
T = Trace of Precipitation, MM = Missing Value Source: NWS Daily Summary

Daily Weather History Graph

Daily Weather History Graph

Search for Another Location

Airport or City:

Astronomy

Jan. 21, 2013 Rise Set
Actual Time 7:59 AM EST 5:50 PM EST
Civil Twilight 7:29 AM EST 6:19 PM EST
Nautical Twilight 6:57 AM EST 6:52 PM EST
Astronomical Twilight 6:25 AM EST 7:24 PM EST
Moon 1:30 PM EST (1/21) 3:26 AM EST (1/21)
Length of Visible Light 10h 49m
Length of Day
9h 51m
Waxing Gibbous, 75% of the Moon is Illuminated
Jan 21
Waxing Gibbous
Jan 26
Full
Feb 3
Last Quarter
Feb 10
New
Feb 17
First Quarter

Hourly Weather History & Observations

Time (EST) Temp. Windchill Dew Point Humidity Pressure Visibility Wind Dir Wind Speed Gust Speed Precip Events Conditions
12:53 AM 25.0 °F 17.1 °F 12.9 °F 60% 30.18 in 10.0 mi WNW 6.9 mph - N/A   Overcast
1:53 AM 25.0 °F 15.5 °F 14.0 °F 63% 30.16 in 10.0 mi NW 9.2 mph - N/A   Overcast
2:53 AM 24.1 °F 14.4 °F 12.9 °F 62% 30.17 in 10.0 mi West 9.2 mph - N/A   Overcast
3:53 AM 24.1 °F 13.7 °F 12.9 °F 62% 30.15 in 10.0 mi WNW 10.4 mph - N/A   Overcast
4:21 AM 23.0 °F 11.1 °F 12.2 °F 63% 30.12 in 10.0 mi West 12.7 mph - N/A   Overcast
4:53 AM 23.0 °F 12.4 °F 12.9 °F 65% 30.14 in 10.0 mi WNW 10.4 mph - N/A   Overcast
5:53 AM 23.0 °F 11.1 °F 12.9 °F 65% 30.14 in 10.0 mi WNW 12.7 mph - N/A   Overcast
6:53 AM 21.9 °F 8.7 °F 12.0 °F 66% 30.14 in 10.0 mi West 15.0 mph - 0.00 in   Overcast
7:53 AM 21.9 °F 10.4 °F 12.0 °F 66% 30.15 in 9.0 mi WNW 11.5 mph - 0.00 in Snow Light Snow
8:38 AM 21.2 °F 8.3 °F 14.0 °F 74% 30.10 in 2.0 mi West 13.8 mph 20.7 mph 0.00 in Snow Light Snow
8:53 AM 21.0 °F 8.6 °F 12.9 °F 71% 30.14 in 6.0 mi West 12.7 mph - 0.00 in Snow Light Snow
9:53 AM 21.0 °F 7.6 °F 10.9 °F 65% 30.15 in 8.0 mi West 15.0 mph 21.9 mph 0.00 in Snow Light Snow
10:03 AM 19.4 °F 5.0 °F 12.2 °F 74% 30.12 in 1.8 mi West 16.1 mph - 0.00 in Snow Light Snow
10:18 AM 19.4 °F 4.5 °F 12.2 °F 74% 30.12 in 2.0 mi West 17.3 mph 25.3 mph 0.00 in Snow Light Snow
10:25 AM 21.2 °F 5.6 °F 10.4 °F 63% 30.12 in 9.0 mi West 20.7 mph 26.5 mph 0.00 in   Overcast
10:43 AM 19.4 °F 2.8 °F 10.4 °F 68% 30.12 in 2.0 mi West 21.9 mph 29.9 mph 0.00 in Snow Light Snow
10:51 AM 19.4 °F 1.8 °F 8.6 °F 63% 30.13 in 3.0 mi West 25.3 mph 32.2 mph 0.00 in Snow Light Snow
10:53 AM 19.0 °F 2.0 °F 6.1 °F 57% 30.17 in 5.0 mi West 23.0 mph 32.2 mph 0.00 in Snow Light Snow
11:53 AM 21.0 °F 5.0 °F 6.1 °F 53% 30.17 in 10.0 mi West 21.9 mph 34.5 mph 0.00 in   Overcast
12:53 PM 19.9 °F 6.7 °F 3.9 °F 50% 30.17 in 10.0 mi West 13.8 mph 26.5 mph N/A   Overcast
1:53 PM 19.9 °F 6.2 °F 3.0 °F 48% 30.16 in 10.0 mi WNW 15.0 mph 24.2 mph N/A   Overcast
2:53 PM 21.0 °F 5.7 °F 1.9 °F 44% 30.17 in 10.0 mi West 19.6 mph 28.8 mph N/A   Mostly Cloudy
3:53 PM 19.9 °F 4.8 °F 1.0 °F 44% 30.18 in 10.0 mi West 18.4 mph 28.8 mph N/A   Mostly Cloudy
4:53 PM 17.1 °F 1.0 °F -0.9 °F 45% 30.20 in 10.0 mi WNW 18.4 mph 28.8 mph N/A   Scattered Clouds
5:53 PM 16.0 °F 0.6 °F -0.0 °F 49% 30.22 in 10.0 mi West 16.1 mph - N/A   Mostly Cloudy
6:53 PM 15.1 °F 1.8 °F -0.0 °F 51% 30.24 in 10.0 mi WNW 11.5 mph - N/A   Clear
7:53 PM 14.0 °F -1.4 °F -0.9 °F 52% 30.24 in 10.0 mi West 15.0 mph 20.7 mph N/A   Clear
8:53 PM 14.0 °F -2.0 °F -4.0 °F 45% 30.25 in 10.0 mi West 16.1 mph 23.0 mph N/A   Clear
9:53 PM 12.9 °F -2.2 °F -2.9 °F 49% 30.27 in 10.0 mi WNW 13.8 mph - N/A   Clear
10:53 PM 12.9 °F -2.8 °F -4.0 °F 47% 30.28 in 10.0 mi WNW 15.0 mph 23.0 mph N/A   Clear
11:53 PM 12.0 °F -4.0 °F -2.9 °F 51% 30.28 in 10.0 mi West 15.0 mph 21.9 mph N/A   Clear